Weather History for Jasper, TX

Change the Weather History Date:

Tuesday, November 19, 2013

  Actual Average (KLFK) Record (KLFK)
Temperature  
Mean Temperature 56 °F 57 °F  
Max Temperature 67 °F 68 °F 84 °F (1906)
Min Temperature 44 °F 46 °F 21 °F (1951)
Degree Days  
Heating Degree Days 10 9  
Month to date heating degree days 124  
Since 1 July heating degree days 190  
Cooling Degree Days 0 1  
Month to date cooling degree days 29  
Year to date cooling degree days 2573  
Growing Degree Days 6 (Base 50)    
Moisture  
Dew Point 41 °F    
Average Humidity 57    
Maximum Humidity 95    
Minimum Humidity 32    
Precipitation  
Precipitation 0.00 in 0.15 in 3.95 in (1907)
Month to date precipitation 3.25  
Year to date precipitation 42.75  
Snow  
Snow 0.00 in - - ()
Month to date snowfall  
Since 1 July snowfall  
Since 1 September snowfall  
Snow Depth -    
Sea Level Pressure  
Sea Level Pressure 30.14 in    
Wind  
Wind Speed 7 mph (ENE)    
Max Wind Speed 14 mph    
Max Gust Speed 21 mph    
Visibility 10 miles    
Events      
T = Trace of Precipitation, MM = Missing Value Source: NWS Daily Summary

Daily Weather History Graph

Daily Weather History Graph

Search for Another Location

Airport:

Trip Planner

Search our weather history database for the weather conditions in past years. The results will help you decide how hot, cold, wet, or windy it might be!

Date:

Astronomy

Nov. 19, 2013 Rise Set
Actual Time 6:46 AM CST 5:16 PM CST
Civil Twilight 6:20 AM CST 5:42 PM CST
Nautical Twilight 5:51 AM CST 6:11 PM CST
Astronomical Twilight 5:22 AM CST 6:40 PM CST
Moon 7:09 PM CST (11/19) 8:25 AM CST (11/19)
Length of Visible Light 11h 21m
Length of Day
10h 30m
Waning Gibbous, 96% of the Moon is Illuminated
Nov 19
Waning Gibbous
Nov 25
Last Quarter
Dec 2
New
Dec 9
First Quarter
Dec 17
Full

Hourly Weather History & Observations

Time (CST) Temp. Dew Point Humidity Pressure Visibility Wind Dir Wind Speed Gust Speed Precip Events Conditions
12:15 AM 59.0 °F 41.4 °F 52% 30.16 in 10.0 mi NE 8.1 mph - N/A   Clear
12:35 AM 58.5 °F 41.9 °F 54% 30.15 in 10.0 mi ENE 10.4 mph - N/A   Clear
12:55 AM 58.1 °F 42.1 °F 55% 30.15 in 10.0 mi ENE 8.1 mph 17.3 mph N/A   Clear
1:15 AM 58.1 °F 42.3 °F 56% 30.15 in 10.0 mi NE 11.5 mph 17.3 mph N/A   Clear
1:35 AM 58.1 °F 41.7 °F 54% 30.16 in 10.0 mi NE 6.9 mph - N/A   Clear
1:55 AM 57.9 °F 41.5 °F 54% 30.16 in 10.0 mi NE 6.9 mph - N/A   Clear
2:15 AM 57.7 °F 41.4 °F 54% 30.16 in 10.0 mi NE 5.8 mph - N/A   Clear
2:35 AM 57.6 °F 41.4 °F 55% 30.15 in 10.0 mi NE 8.1 mph - N/A   Clear
2:55 AM 57.2 °F 41.5 °F 56% 30.14 in 10.0 mi ENE 6.9 mph - N/A   Clear
3:15 AM 57.2 °F 41.9 °F 57% 30.14 in 10.0 mi ENE 10.4 mph - N/A   Clear
3:35 AM 57.2 °F 41.7 °F 56% 30.14 in 10.0 mi ENE 10.4 mph - N/A   Clear
3:55 AM 57.2 °F 41.2 °F 55% 30.14 in 10.0 mi ENE 6.9 mph - N/A   Clear
4:15 AM 57.2 °F 40.5 °F 54% 30.12 in 10.0 mi ENE 12.7 mph 18.4 mph N/A   Clear
4:35 AM 56.8 °F 40.1 °F 54% 30.13 in 10.0 mi ENE 10.4 mph 16.1 mph N/A   Clear
4:55 AM 56.7 °F 39.7 °F 53% 30.14 in 10.0 mi ENE 9.2 mph - N/A   Clear
5:15 AM 56.5 °F 39.6 °F 53% 30.14 in 10.0 mi NE 8.1 mph - N/A   Clear
5:35 AM 56.5 °F 39.2 °F 52% 30.15 in 10.0 mi ENE 9.2 mph - N/A   Clear
5:55 AM 56.3 °F 38.8 °F 52% 30.15 in 10.0 mi ENE 6.9 mph - N/A   Clear
6:15 AM 56.3 °F 39.0 °F 52% 30.16 in 10.0 mi ENE 4.6 mph - N/A   Clear
6:35 AM 56.3 °F 38.7 °F 52% 30.17 in 10.0 mi NE 5.8 mph - N/A   Clear
6:55 AM 56.3 °F 38.5 °F 51% 30.17 in 10.0 mi ENE 8.1 mph - N/A   Clear
7:15 AM 56.3 °F 38.5 °F 51% 30.18 in 10.0 mi NE 8.1 mph - N/A   Clear
7:35 AM 56.1 °F 39.0 °F 53% 30.20 in 10.0 mi ENE 5.8 mph - N/A   Clear
7:55 AM 56.1 °F 39.2 °F 53% 30.20 in 10.0 mi NE 9.2 mph - N/A   Clear
8:15 AM 56.5 °F 39.4 °F 53% 30.21 in 10.0 mi NE 6.9 mph - N/A   Clear
8:35 AM 56.7 °F 39.9 °F 54% 30.21 in 10.0 mi ENE 8.1 mph - N/A   Clear
8:55 AM 56.8 °F 39.9 °F 53% 30.21 in 10.0 mi ENE 9.2 mph 16.1 mph N/A   Clear
9:15 AM 57.2 °F 39.9 °F 52% 30.21 in 10.0 mi ENE 10.4 mph - N/A   Clear
9:35 AM 58.3 °F 39.9 °F 50% 30.21 in 10.0 mi ENE 11.5 mph 17.3 mph N/A   Clear
9:55 AM 59.5 °F 40.1 °F 49% 30.21 in 10.0 mi ENE 13.8 mph 18.4 mph N/A   Clear
10:15 AM 60.3 °F 39.4 °F 46% 30.21 in 10.0 mi East 10.4 mph 16.1 mph N/A   Clear
10:35 AM 61.5 °F 39.6 °F 44% 30.21 in 10.0 mi East 8.1 mph 20.7 mph N/A   Clear
10:55 AM 62.4 °F 39.4 °F 43% 30.21 in 10.0 mi East 10.4 mph 17.3 mph N/A   Clear
11:15 AM 63.3 °F 39.6 °F 42% 30.20 in 10.0 mi East 9.2 mph - N/A   Clear
11:35 AM 64.2 °F 39.0 °F 39% 30.19 in 10.0 mi ENE 9.2 mph - N/A   Clear
11:55 AM 65.1 °F 38.5 °F 37% 30.18 in 10.0 mi ENE 8.1 mph - N/A   Clear
12:15 PM 65.7 °F 38.5 °F 37% 30.16 in 10.0 mi East 9.2 mph - N/A   Clear
12:35 PM 66.2 °F 37.2 °F 34% 30.15 in 10.0 mi East 8.1 mph 16.1 mph N/A   Clear
12:55 PM 66.6 °F 37.0 °F 34% 30.14 in 10.0 mi ESE 6.9 mph - N/A   Clear
1:15 PM 66.9 °F 37.8 °F 34% 30.13 in 10.0 mi NE 10.4 mph - N/A   Clear
1:35 PM 66.9 °F 37.0 °F 33% 30.12 in 10.0 mi ENE 8.1 mph - N/A   Clear
1:55 PM 67.8 °F 37.0 °F 32% 30.11 in 10.0 mi ENE 8.1 mph - N/A   Clear
2:15 PM 67.8 °F 37.4 °F 33% 30.11 in 10.0 mi East 4.6 mph - N/A   Clear
2:35 PM 67.6 °F 38.8 °F 35% 30.10 in 10.0 mi NNE 6.9 mph - N/A   Clear
2:55 PM 67.6 °F 39.2 °F 35% 30.10 in 10.0 mi East 5.8 mph - N/A   Clear
3:15 PM 67.5 °F 39.2 °F 36% 30.10 in 10.0 mi ENE 5.8 mph - N/A   Clear
3:35 PM 67.3 °F 39.4 °F 36% 30.10 in 10.0 mi NE 5.8 mph - N/A   Clear
3:55 PM 67.1 °F 40.3 °F 38% 30.10 in 10.0 mi Calm Calm - N/A   Clear
4:15 PM 66.2 °F 39.4 °F 37% 30.10 in 10.0 mi NE 5.8 mph - N/A   Clear
4:35 PM 65.3 °F 38.7 °F 38% 30.10 in 10.0 mi ENE 4.6 mph - N/A   Clear
4:55 PM 63.9 °F 39.6 °F 41% 30.10 in 10.0 mi ENE 4.6 mph - N/A   Clear
5:15 PM 62.1 °F 39.7 °F 44% 30.11 in 10.0 mi ENE 3.5 mph - N/A   Clear
5:35 PM 58.5 °F 43.7 °F 58% 30.11 in 10.0 mi Calm Calm - N/A   Clear
5:55 PM 54.3 °F 46.0 °F 74% 30.11 in 10.0 mi Calm Calm - N/A   Clear
6:15 PM 52.5 °F 45.9 °F 78% 30.11 in 10.0 mi Calm Calm - N/A   Clear
6:35 PM 51.4 °F 46.2 °F 82% 30.11 in 10.0 mi Calm Calm - N/A   Clear
6:55 PM 50.5 °F 46.2 °F 85% 30.11 in 10.0 mi Calm Calm - N/A   Clear
7:15 PM 51.4 °F 45.3 °F 80% 30.10 in 10.0 mi ENE 3.5 mph - N/A   Clear
7:35 PM 52.9 °F 44.4 °F 73% 30.10 in 10.0 mi Calm Calm - N/A   Clear
7:55 PM 51.3 °F 45.1 °F 80% 30.11 in 10.0 mi Calm Calm - N/A   Clear
8:15 PM 49.8 °F 46.2 °F 87% 30.11 in 10.0 mi Calm Calm - N/A   Clear
8:35 PM 48.9 °F 44.6 °F 85% 30.12 in 10.0 mi Calm Calm - N/A   Clear
8:55 PM 48.4 °F 45.0 °F 88% 30.12 in 10.0 mi Calm Calm - N/A   Clear
9:15 PM 47.1 °F 44.6 °F 91% 30.12 in 10.0 mi Calm Calm - N/A   Clear
9:35 PM 46.0 °F 44.1 °F 93% 30.12 in 10.0 mi Calm Calm - N/A   Clear
9:55 PM 45.7 °F 43.9 °F 93% 30.11 in 10.0 mi Calm Calm - N/A   Clear
10:15 PM 45.5 °F 43.7 °F 93% 30.12 in 10.0 mi Calm Calm - N/A   Clear
10:35 PM 45.3 °F 43.9 °F 95% 30.12 in 10.0 mi Calm Calm - N/A   Clear
10:55 PM 44.6 °F 43.2 °F 95% 30.12 in 10.0 mi Calm Calm - N/A   Clear
11:15 PM 44.4 °F 42.6 °F 93% 30.11 in 10.0 mi Calm Calm - N/A   Clear
11:35 PM 44.4 °F 42.4 °F 93% 30.11 in 10.0 mi Calm Calm - N/A   Clear
11:55 PM 45.0 °F 42.1 °F 90% 30.11 in 10.0 mi Calm Calm - N/A   Clear